Wind_Speed
11 15 17 17 17 17 16 14 13 11 9 7 7 6 5 6 7 6 6 6 7 8 7 7 7 7 7 7 5 4 4 9 12 11 11 10 10 10 9 9 10 10 10
11 15 18 17 17 16 13 11 11 9 8 8 6 6 4 5 6 6 6 7 7 8 7 7 7 6 5 6 5 4 7 11 13 12 11 10 10 10 8 8 9 9 10
12 16 18 16 15 14 11 9 9 8 7 6 7 5 5 5 6 6 7 6 7 7 7 6 5 6 5 4 6 7 8 11 13 13 11 10 10 10 8 8 8 8 9
13 14 16 15 15 14 11 10 9 8 6 6 6 5 5 6 6 6 8 7 7 7 7 6 5 6 6 5 6 9 8 12 13 13 11 9 9 9 8 7 7 8 9
12 14 14 15 15 13 11 10 11 10 8 4 5 5 5 7 7 7 8 7 7 7 7 6 5 4 5 4 5 10 10 12 14 12 12 9 8 8 7 7 7 7 8
12 14 14 15 15 14 12 10 10 9 7 6 3 3 5 7 8 7 8 8 7 7 7 6 4 4 4 4 5 11 12 12 14 13 12 11 7 7 8 6 7 7 7
13 15 15 15 14 14 12 11 9 9 8 7 5 4 4 7 9 9 9 8 8 7 7 6 4 4 5 3 6 14 14 14 14 13 12 11 10 7 7 6 6 7 6
12 14 15 16 15 16 15 14 13 11 9 9 9 6 5 7 10 9 9 9 9 8 7 6 4 4 4 3 9 16 14 14 14 13 12 12 10 8 7 5 4 5 6
13 13 15 16 16 15 16 15 15 14 12 11 10 8 8 9 10 9 9 10 10 8 7 6 4 4 3 4 10 16 16 13 15 13 12 12 10 7 6 5 3 4 5
11 11 11 15 15 15 16 15 15 16 15 14 13 11 10 11 12 11 10 10 10 9 7 6 6 5 4 5 8 13 15 15 15 14 13 12 11 9 6 3 3 3 4
9 12 12 14 15 15 15 15 16 18 18 19 11 17 15 15 15 12 12 11 10 9 9 7 7 5 4 7 9 12 15 15 15 16 15 13 12 11 9 6 4 4 3
4 10 14 14 15 15 16 17 18 20 21 20 16 18 24 18 17 15 13 13 12 11 10 9 7 6 4 6 9 10 13 15 16 16 14 14 13 12 10 7 7 5 4
1 6 9 13 16 17 18 18 19 22 21 22 27 22 13 18 22 20 16 15 15 13 12 9 8 6 5 6 9 10 14 14 16 15 13 13 14 13 11 9 7 6 5
6 5 1 3 7 11 16 19 20 23 23 21 20 19 16 21 24 25 19 18 17 16 14 11 8 7 5 6 9 11 12 12 14 14 13 13 14 13 12 10 8 6 7
5 7 6 2 3 5 9 13 15 19 20 22 21 14 14 19 24 25 23 21 19 18 17 13 9 7 6 4 7 11 13 13 12 11 14 13 14 14 13 11 10 9 9
3 5 8 6 7 4 5 7 9 14 17 20 22 18 18 15 24 27 26 24 22 20 18 16 13 10 7 6 4 9 11 14 13 14 12 14 15 14 13 12 12 12 11
5 6 9 9 7 6 7 7 8 11 16 18 21 21 18 20 24 20 28 30 25 23 20 19 16 13 11 9 6 7 11 14 14 16 15 14 15 15 13 13 14 13 11
7 7 12 12 13 14 13 13 12 13 15 18 20 23 23 22 23 22 28 32 27 23 22 20 17 15 14 12 9 8 10 13 17 18 17 14 15 16 15 14 14 13 11
10 12 13 13 18 19 17 16 16 16 18 21 23 25 25 26 27 27 28 25 35 26 24 22 20 17 14 14 12 11 10 13 16 21 19 18 17 15 15 15 14 14 12
11 12 14 17 19 22 22 22 19 22 23 23 26 26 27 28 29 31 30 32 31 28 28 25 22 18 15 15 13 12 12 14 17 17 20 21 18 15 15 17 15 16 13
11 14 16 20 22 24 26 25 25 23 21 22 25 29 29 30 31 33 33 33 34 31 29 26 22 19 17 16 15 14 14 15 15 16 20 21 19 19 19 16 17 16 16
13 14 18 22 23 27 29 28 23 20 19 17 19 25 31 30 32 34 35 35 34 31 30 28 25 21 19 17 16 15 14 14 14 15 15 19 19 18 18 17 15 17 17
15 18 19 21 24 29 28 25 22 20 21 15 13 18 22 28 32 34 37 35 35 32 28 30 25 21 20 18 16 14 13 13 14 13 14 15 17 17 16 16 15 15 16
16 17 18 20 24 25 24 23 20 25 18 22 20 17 22 24 27 31 34 36 36 35 34 25 24 22 21 17 15 13 12 12 11 7 8 12 14 16 17 17 16 15 15
10 14 15 18 20 20 19 23 22 17 15 20 17 17 20 24 25 28 34 35 37 35 36 27 25 24 21 18 15 15 12 9 7 5 3 10 12 12 13 12 12 13 14
9 15 15 16 17 17 15 12 11 8 2 4 9 14 19 22 23 25 30 36 36 36 30 29 28 26 23 19 16 16 14 10 7 6 6 6 7 11 11 10 11 12 13
Wind_Direction
182 169 166 155 153 149 142 136 129 126 129 127 129 131 157 165 152 162 157 167 155 140 137 135 136 152 163 162 147 126 128 151 131 128 124 109 104 98 92 87 83 77 77
191 171 169 160 155 153 143 132 132 130 134 133 133 140 156 176 165 169 168 173 163 148 138 134 140 160 174 184 163 134 121 143 138 133 125 113 108 100 96 86 84 80 81
175 175 173 166 163 156 147 138 134 139 145 149 133 141 148 183 177 174 169 184 167 155 139 137 139 149 161 163 160 149 130 142 142 138 130 120 111 106 98 86 86 81 78
162 176 175 173 168 163 157 150 144 148 149 152 127 125 151 175 188 184 171 187 171 164 147 135 142 153 146 125 156 163 145 149 145 141 136 121 111 106 103 94 89 91 90
162 166 176 176 173 173 167 160 155 156 153 159 138 135 145 175 176 192 182 185 179 165 139 140 152 150 157 154 157 170 158 157 151 148 136 132 121 116 109 101 95 93 91
179 176 174 180 180 180 181 180 170 165 169 171 161 169 152 168 174 192 191 189 186 169 151 144 159 153 155 152 165 168 162 159 159 157 152 142 132 125 117 108 105 98 93
188 189 185 185 189 190 198 195 192 185 188 191 197 213 194 171 184 189 196 190 197 184 168 165 172 153 163 156 160 167 162 164 171 167 163 153 156 138 122 110 113 106 100
195 199 202 198 200 202 204 206 208 209 205 208 208 219 230 209 191 193 196 197 200 191 180 180 195 170 164 155 158 166 171 172 177 178 175 170 168 152 131 115 113 115 106
213 209 207 215 215 215 220 217 219 221 220 218 227 222 224 223 203 200 203 198 203 195 191 190 201 186 175 152 167 172 181 179 182 190 185 180 177 168 146 131 118 120 117
219 218 223 224 221 227 228 225 224 224 226 223 227 232 231 219 215 204 210 198 200 195 198 195 201 198 193 171 173 181 181 180 185 193 199 189 183 181 169 157 142 123 124
234 232 232 237 230 233 231 229 225 226 230 227 213 251 221 222 220 205 205 202 203 194 191 196 191 196 199 177 184 181 187 189 192 197 201 195 192 190 189 184 182 167 154
251 242 242 238 238 235 230 229 234 236 241 243 231 312 229 209 217 210 204 205 200 194 188 194 188 189 189 180 185 186 190 196 197 202 208 199 201 199 201 205 197 191 193
336 258 248 247 238 236 239 239 235 241 246 251 257 295 190 221 215 210 204 208 200 193 184 185 185 187 178 195 187 188 186 200 210 207 212 203 202 205 211 221 211 209 212
72 74 91 232 243 239 238 238 244 247 249 254 256 295 210 213 222 209 198 206 202 195 193 187 186 188 188 191 196 192 193 200 199 205 213 200 204 208 213 218 224 242 236
88 67 62 338 251 245 249 244 243 253 251 250 252 259 229 240 226 222 199 204 203 200 200 197 191 200 206 186 196 202 213 209 207 211 219 207 211 213 215 218 235 257 250
28 21 20 29 35 356 282 256 244 249 250 248 250 245 245 244 226 227 218 203 203 204 204 210 205 209 225 224 230 209 215 217 218 220 217 214 214 214 215 223 242 250 249
332 337 345 349 350 349 328 291 267 248 248 242 242 242 236 230 224 235 215 205 203 206 209 213 218 222 231 231 239 220 219 224 226 219 218 232 225 224 231 236 243 256 257
302 312 334 323 322 322 314 305 286 268 255 248 242 241 236 229 224 222 209 212 208 209 211 213 216 218 227 232 238 246 242 240 231 232 237 235 235 235 238 238 249 252 254
314 318 315 316 312 310 309 298 285 285 270 256 245 240 232 224 224 222 220 202 202 215 215 213 217 218 227 234 245 247 255 255 247 242 240 239 229 226 237 241 246 249 258
313 318 314 309 305 304 298 299 286 287 280 258 249 241 233 226 222 221 220 218 209 217 219 214 218 221 222 237 240 242 255 264 260 253 240 237 236 235 241 246 246 253 258
301 311 312 310 301 303 303 299 295 294 287 271 249 240 234 227 221 221 219 214 209 221 216 216 214 220 223 230 241 255 264 272 269 263 240 236 237 242 245 249 250 250 257
289 299 300 299 308 302 299 294 294 293 284 271 258 237 231 228 221 219 218 217 216 215 213 216 211 214 223 229 243 252 265 277 275 259 247 244 238 240 248 249 250 250 256
279 288 302 300 304 297 301 296 294 291 277 262 256 240 230 225 223 218 216 217 218 216 218 217 214 214 227 232 237 246 265 267 269 265 249 241 238 247 250 253 256 259 257
282 299 304 307 304 304 302 302 298 292 265 256 254 244 232 221 217 216 212 213 215 213 215 210 220 214 227 231 237 244 244 254 262 261 254 242 235 247 255 256 256 258 258
307 320 319 314 313 307 312 322 315 304 270 259 234 236 227 218 217 216 212 211 213 210 214 208 209 213 217 227 239 234 229 229 223 219 272 260 249 246 247 247 244 254 261
347 349 346 338 332 329 327 322 333 325 306 242 235 234 215 209 214 212 209 208 212 213 211 214 210 212 214 225 229 222 222 213 212 234 247 284 258 256 256 257 255 254 255
Height
3176 3178 3180 3182 3185 3186 3187 3189 3190 3190 3191 3192 3193 3195 3196 3197 3197 3199 3199 3200 3199 3199 3200 3200 3200 3202 3203 3203 3204 3205 3205 3206 3207 3208 3209 3211 3211 3211 3212 3212 3212 3212 3212
3176 3178 3180 3182 3185 3186 3188 3190 3190 3192 3193 3193 3194 3195 3197 3198 3199 3200 3201 3201 3200 3200 3201 3201 3202 3203 3204 3204 3205 3206 3206 3208 3209 3210 3211 3212 3213 3212 3213 3213 3213 3214 3213
3177 3178 3181 3183 3185 3188 3189 3190 3191 3192 3194 3195 3195 3196 3197 3198 3199 3200 3201 3202 3202 3201 3202 3201 3202 3203 3204 3205 3206 3207 3208 3209 3210 3211 3212 3213 3213 3214 3215 3215 3216 3216 3216
3177 3179 3182 3184 3186 3188 3189 3191 3193 3193 3194 3195 3195 3196 3197 3199 3200 3201 3201 3203 3203 3203 3202 3202 3203 3203 3204 3205 3206 3207 3209 3210 3211 3213 3213 3215 3215 3216 3217 3217 3217 3218 3218
3178 3180 3182 3184 3186 3188 3190 3192 3193 3194 3195 3196 3195 3197 3198 3198 3200 3202 3203 3203 3203 3203 3203 3203 3204 3203 3204 3205 3206 3207 3209 3211 3212 3214 3215 3216 3217 3218 3219 3219 3219 3219 3219
3178 3180 3182 3183 3185 3187 3190 3191 3192 3193 3194 3195 3196 3197 3198 3199 3200 3202 3203 3203 3204 3204 3204 3204 3204 3205 3205 3205 3206 3208 3209 3211 3213 3215 3217 3218 3219 3220 3220 3220 3220 3220 3221
3177 3179 3180 3183 3185 3187 3189 3190 3192 3193 3195 3196 3197 3198 3198 3199 3199 3202 3203 3203 3204 3204 3204 3204 3205 3205 3205 3206 3206 3208 3209 3211 3213 3215 3217 3218 3219 3220 3221 3221 3221 3221 3222
3177 3178 3180 3182 3184 3186 3188 3189 3190 3192 3194 3195 3196 3197 3198 3200 3200 3201 3202 3203 3204 3204 3204 3204 3205 3205 3206 3206 3206 3208 3209 3212 3214 3216 3218 3219 3220 3221 3221 3221 3222 3222 3223
3176 3178 3179 3181 3182 3185 3186 3187 3189 3190 3193 3194 3195 3197 3198 3199 3200 3201 3201 3202 3203 3203 3205 3205 3205 3206 3207 3207 3207 3209 3210 3213 3215 3216 3218 3219 3221 3222 3222 3222 3222 3223 3223
3175 3176 3178 3179 3180 3182 3184 3186 3189 3189 3189 3192 3194 3195 3198 3199 3199 3201 3201 3202 3203 3204 3204 3204 3205 3206 3207 3207 3208 3209 3211 3212 3214 3216 3218 3218 3220 3222 3222 3223 3223 3224 3224
3174 3175 3176 3177 3179 3180 3182 3184 3185 3187 3188 3190 3191 3196 3196 3198 3199 3199 3200 3201 3201 3203 3203 3203 3204 3206 3207 3207 3208 3209 3211 3212 3214 3215 3217 3219 3220 3221 3222 3222 3223 3224 3224
3173 3174 3174 3176 3178 3178 3180 3182 3182 3184 3185 3185 3189 3189 3193 3194 3197 3198 3198 3199 3201 3202 3203 3204 3204 3206 3206 3207 3207 3209 3211 3212 3214 3215 3216 3218 3219 3220 3221 3222 3222 3223 3224
3172 3172 3173 3174 3175 3176 3178 3179 3181 3180 3182 3185 3185 3183 3182 3189 3193 3193 3196 3197 3199 3201 3202 3204 3204 3205 3206 3206 3206 3208 3210 3211 3213 3215 3216 3217 3218 3220 3221 3221 3222 3223 3223
3172 3172 3172 3172 3172 3173 3174 3176 3176 3177 3179 3180 3182 3180 3180 3184 3189 3191 3191 3194 3198 3199 3201 3202 3203 3204 3205 3206 3206 3208 3209 3211 3212 3214 3215 3215 3217 3218 3219 3220 3222 3222 3222
3173 3172 3172 3171 3170 3170 3170 3171 3172 3172 3173 3176 3178 3181 3182 3182 3184 3188 3188 3190 3194 3197 3199 3201 3202 3203 3205 3205 3205 3207 3209 3210 3212 3212 3213 3215 3216 3217 3217 3219 3221 3221 3221
3172 3172 3171 3170 3169 3168 3167 3167 3168 3169 3169 3169 3172 3176 3178 3176 3179 3182 3188 3187 3190 3194 3196 3199 3200 3201 3203 3204 3205 3205 3206 3208 3210 3210 3212 3213 3214 3215 3216 3218 3219 3219 3220
3172 3171 3170 3169 3168 3166 3165 3164 3164 3165 3164 3165 3166 3169 3173 3175 3176 3177 3182 3185 3186 3190 3193 3196 3198 3200 3201 3202 3203 3204 3205 3206 3207 3208 3210 3211 3211 3213 3215 3215 3215 3216 3217
3170 3170 3169 3167 3166 3165 3163 3162 3161 3161 3161 3161 3161 3162 3166 3169 3171 3173 3176 3183 3184 3186 3189 3192 3195 3197 3199 3200 3201 3202 3202 3204 3205 3206 3207 3209 3209 3210 3212 3213 3214 3215 3215
3168 3167 3166 3163 3162 3161 3160 3158 3156 3155 3156 3155 3156 3157 3159 3162 3166 3169 3172 3176 3181 3183 3187 3189 3192 3194 3196 3198 3199 3199 3200 3201 3202 3202 3204 3206 3206 3207 3209 3211 3211 3212 3213
3165 3164 3163 3160 3158 3156 3155 3153 3151 3149 3148 3149 3149 3150 3152 3155 3159 3163 3166 3171 3176 3179 3183 3185 3189 3192 3194 3196 3197 3197 3198 3199 3199 3200 3201 3202 3204 3201 3206 3208 3209 3210 3211
3163 3162 3160 3158 3154 3153 3150 3147 3146 3143 3139 3139 3141 3143 3146 3149 3153 3156 3161 3166 3171 3175 3180 3183 3186 3189 3192 3193 3194 3195 3195 3195 3195 3196 3197 3198 3201 3201 3203 3205 3207 3207 3208
3161 3160 3158 3155 3152 3147 3146 3142 3139 3136 3135 3134 3133 3135 3138 3142 3146 3150 3155 3160 3166 3170 3174 3178 3182 3186 3189 3191 3192 3192 3192 3193 3192 3193 3194 3195 3197 3199 3201 3203 3204 3204 3204
3159 3157 3155 3152 3150 3144 3140 3137 3133 3131 3131 3129 3128 3129 3131 3135 3139 3144 3149 3155 3161 3165 3169 3174 3179 3182 3185 3188 3188 3190 3190 3190 3190 3190 3190 3192 3194 3196 3198 3199 3200 3200 3201
3157 3155 3152 3149 3145 3140 3135 3131 3127 3124 3123 3124 3124 3124 3125 3128 3133 3137 3144 3149 3154 3160 3165 3169 3175 3179 3182 3184 3185 3186 3187 3188 3188 3189 3188 3190 3191 3193 3194 3195 3196 3197 3198
3155 3153 3149 3146 3142 3137 3132 3126 3121 3116 3116 3116 3117 3119 3120 3124 3128 3133 3138 3143 3149 3155 3162 3167 3171 3175 3178 3181 3182 3183 3185 3185 3186 3186 3188 3188 3188 3189 3190 3191 3192 3193 3195
3154 3151 3147 3143 3139 3133 3129 3124 3119 3117 3115 3114 3114 3114 3116 3120 3124 3127 3133 3138 3144 3151 3157 3163 3168 3171 3174 3178 3179 3182 3183 3184 3184 3186 3187 3187 3187 3187 3188 3189 3190 3191 3192